FW8972 Weather Reports


time (UTC)temp
C
wind
direction
speed
KPH
gust
KPH
rain 1hr
cm
rain 24hr
cm
rain mn
cm
humidity
%
barometer
mb
20260503200046 21 41 6.4 12.9 0.00 0.00 0.00 33 1013.9
20260503195531 21 25 1.6 9.7 0.00 0.00 0.00 35 1014.1
20260503195031 22 351 1.6 9.7 0.00 0.00 0.00 35 1014.2
20260503194530 21 319 3.2 9.7 0.00 0.00 0.00 37 1014.2
20260503194030 22 34 4.8 9.7 0.00 0.00 0.00 33 1014.2
20260503193528 22 17 3.2 9.7 0.00 0.00 0.00 35 1014.3
20260503193033 22 346 3.2 9.7 0.00 0.00 0.00 35 1014.3
20260503192526 21 30 3.2 8.0 0.00 0.00 0.00 33 1014.3
20260503192026 21 9 0.0 8.0 0.00 0.00 0.00 36 1014.4
20260503191523 21 5 3.2 6.4 0.00 0.00 0.00 36 1014.4
20260503191022 21 100 1.6 8.0 0.00 0.00 0.00 37 1014.4
20260503190521 21 61 1.6 8.0 0.00 0.00 0.00 38 1014.4
20260503190021 20 18 3.2 8.0 0.00 0.00 0.00 39 1014.5
20260503185519 20 254 0.0 6.4 0.00 0.00 0.00 39 1014.6
20260503185024 19 84 3.2 6.4 0.00 0.00 0.00 39 1014.6
20260503184516 19 65 3.2 8.0 0.00 0.00 0.00 40 1014.7
20260503184015 20 77 3.2 8.0 0.00 0.00 0.00 39 1014.8
20260503183514 20 51 3.2 8.0 0.00 0.00 0.00 37 1014.7
20260503183014 21 44 3.2 8.0 0.00 0.00 0.00 37 1014.8
20260503182512 20 32 3.2 9.7 0.00 0.00 0.00 37 1014.7
20260503182015 21 296 3.2 9.7 0.00 0.00 0.00 37 1014.9
20260503181510 20 355 1.6 9.7 0.00 0.00 0.00 38 1014.8
20260503181010 20 63 4.8 8.0 0.00 0.00 0.00 38 1014.8
20260503180509 20 55 3.2 9.7 0.00 0.00 0.00 39 1014.7
20260503180008 20 71 3.2 9.7 0.00 0.00 0.00 39 1014.8
20260503175506 20 34 3.2 8.0 0.00 0.00 0.00 41 1014.9
20260503175105 20 331 3.2 8.0 0.00 0.00 0.00 40 1014.9
20260503174503 20 5 3.2 8.0 0.00 0.00 0.00 38 1014.8
20260503174002 21 67 1.6 6.4 0.00 0.00 0.00 37 1014.8
20260503173502 21 25 1.6 6.4 0.00 0.00 0.00 38 1014.8
20260503173111 20 16 1.6 6.4 0.00 0.00 0.00 36 1014.9
20260503172558 20 243 1.6 6.4 0.00 0.00 0.00 36 1014.9
20260503172057 20 284 1.6 6.4 0.00 0.00 0.00 37 1015.1
20260503171555 20 15 1.6 8.0 0.00 0.00 0.00 38 1015.1
20260503171054 19 239 1.6 8.0 0.00 0.00 0.00 39 1015.1
20260503170553 18 332 1.6 4.8 0.00 0.00 0.00 41 1015.2
20260503150625 15 259 0.0 4.8 0.00 0.00 0.00 48 1015.6
20260503131100 11 268 0.0 8.0 0.00 0.00 0.00 56 1015.7
20260503130603 11 284 0.0 9.7 0.00 0.00 0.00 56 1015.6
20260503130106 11 286 0.0 3.2 0.00 0.00 0.00 56 1015.6
20260503110543 13 313 0.0 3.2 0.00 0.00 0.00 49 1015.7
20260503090133 13 44 3.2 8.0 0.00 0.00 0.00 49 1015.6
20260503081537 14 309 0.0 0.0 0.00 0.00 0.00 45 1015.4
20260503081025 14 309 0.0 0.0 0.00 0.00 0.00 45 1015.4
20260503080525 14 309 0.0 0.0 0.00 0.00 0.00 45 1015.4
20260503072521 15 323 0.0 1.6 0.00 0.00 0.00 47 1015.3
20260503072021 15 323 0.0 1.6 0.00 0.00 0.00 47 1015.4
20260503071520 15 323 0.0 3.2 0.00 0.00 0.00 47 1015.4
20260503071019 14 323 0.0 3.2 0.00 0.00 0.00 48 1015.4
20260503070518 14 327 0.0 6.4 0.00 0.00 0.00 48 1015.4
20260503055015 16 317 0.0 0.0 0.00 0.00 0.00 44 1015.2
20260503054517 16 317 0.0 1.6 0.00 0.00 0.00 42 1015.2
20260503054014 16 317 0.0 1.6 0.00 0.00 0.00 41 1015.2
20260503053514 16 317 0.0 1.6 0.00 0.00 0.00 40 1015.2
20260503053018 17 317 0.0 1.6 0.00 0.00 0.00 40 1015.2
20260503052514 17 317 0.0 0.0 0.00 0.00 0.00 40 1015.1
20260503052014 17 317 0.0 0.0 0.00 0.00 0.00 39 1015.3
20260503051530 17 317 0.0 1.6 0.00 0.00 0.00 39 1015.2
20260503051013 17 317 0.0 1.6 0.00 0.00 0.00 39 1015.0
20260503050513 17 317 0.0 0.0 0.00 0.00 0.00 38 1015.2
20260503050014 17 317 0.0 1.6 0.00 0.00 0.00 38 1015.1
20260503045514 18 317 0.0 1.6 0.00 0.00 0.00 38 1015.0
20260503045012 18 317 0.0 0.0 0.00 0.00 0.00 37 1015.0
20260503044511 18 317 0.0 0.0 0.00 0.00 0.00 37 1015.1
20260503044009 19 317 0.0 0.0 0.00 0.00 0.00 36 1015.2
20260503043509 19 317 0.0 0.0 0.00 0.00 0.00 36 1015.1
20260503043008 19 317 0.0 3.2 0.00 0.00 0.00 36 1015.1
20260503042507 19 327 0.0 4.8 0.00 0.00 0.00 36 1015.0
20260503042006 20 309 0.0 4.8 0.00 0.00 0.00 35 1015.1
20260503041506 20 318 0.0 6.4 0.00 0.00 0.00 35 1015.1
20260503041010 20 11 1.6 6.4 0.00 0.00 0.00 35 1015.0
20260503040506 20 355 0.0 8.0 0.00 0.00 0.00 35 1014.9
20260503040006 20 338 1.6 9.7 0.00 0.00 0.00 34 1014.9
20260503035506 20 338 0.0 4.8 0.00 0.00 0.00 34 1014.9
20260503035006 20 344 0.0 4.8 0.00 0.00 0.00 34 1014.8
20260503034505 20 339 0.0 4.8 0.00 0.00 0.00 33 1014.8
20260503034005 20 300 0.0 3.2 0.00 0.00 0.00 32 1014.7
20260503033507 20 300 0.0 3.2 0.00 0.00 0.00 31 1014.6
20260503033010 21 300 0.0 3.2 0.00 0.00 0.00 33 1014.7
20260503032506 21 297 0.0 3.2 0.00 0.00 0.00 31 1014.6
20260503032004 21 333 0.0 3.2 0.00 0.00 0.00 31 1014.7
20260503031504 21 349 0.0 4.8 0.00 0.00 0.00 31 1014.6
20260503031004 21 316 0.0 4.8 0.00 0.00 0.00 30 1014.6
20260503030507 22 299 0.0 6.4 0.00 0.00 0.00 29 1014.5
20260503030007 22 346 0.0 6.4 0.00 0.00 0.00 28 1014.6
20260503025503 22 313 1.6 6.4 0.00 0.00 0.00 28 1014.6
20260503025003 22 309 0.0 4.8 0.00 0.00 0.00 27 1014.5
20260503024502 22 290 0.0 9.7 0.00 0.00 0.00 27 1014.5
20260503024002 22 314 0.0 9.7 0.00 0.00 0.00 27 1014.5
20260503023502 22 355 0.0 8.0 0.00 0.00 0.00 26 1014.5
20260503023002 22 289 0.0 8.0 0.00 0.00 0.00 27 1014.6
20260503022502 23 314 0.0 6.4 0.00 0.00 0.00 26 1014.5
20260503022001 23 327 0.0 6.4 0.00 0.00 0.00 26 1014.6
20260503021501 23 301 0.0 6.4 0.00 0.00 0.00 25 1014.6
20260503021100 23 341 1.6 14.5 0.00 0.00 0.00 26 1014.6
20260503020600 23 345 0.0 14.5 0.00 0.00 0.00 26 1014.6
20260503020100 23 325 0.0 8.0 0.00 0.00 0.00 26 1014.5
20260503015558 23 14 1.6 9.7 0.00 0.00 0.00 25 1014.6
20260503015058 23 15 1.6 9.7 0.00 0.00 0.00 25 1014.7
20260503014605 23 34 0.0 6.4 0.00 0.00 0.00 26 1014.7
20260503014058 23 310 0.0 6.4 0.00 0.00 0.00 25 1014.7
20260503013557 23 338 1.6 6.4 0.00 0.00 0.00 25 1014.6
20260503013056 23 308 0.0 6.4 0.00 0.00 0.00 25 1014.7
20260503012555 23 355 1.6 6.4 0.00 0.00 0.00 25 1014.7
20260503012055 24 309 1.6 8.0 0.00 0.00 0.00 24 1014.7
20260503011559 24 350 3.2 8.0 0.00 0.00 0.00 24 1014.7
20260503011054 24 34 1.6 8.0 0.00 0.00 0.00 24 1014.8
20260503010553 24 15 0.0 8.0 0.00 0.00 0.00 25 1014.8
20260503010106 24 355 3.2 12.9 0.00 0.00 0.00 24 1014.8
20260503005557 24 5 3.2 12.9 0.00 0.00 0.00 24 1014.8
20260503005053 25 9 1.6 8.0 0.00 0.00 0.00 25 1014.9
20260503004551 25 325 1.6 6.4 0.00 0.00 0.00 24 1014.9
20260503004051 25 12 0.0 4.8 0.00 0.00 0.00 26 1014.9
20260503003549 24 301 0.0 6.4 0.00 0.00 0.00 26 1015.0
20260503003058 24 355 1.6 6.4 0.00 0.00 0.00 26 1014.9
20260503002548 24 327 1.6 8.0 0.00 0.00 0.00 26 1015.0
20260503002048 24 15 3.2 8.0 0.00 0.00 0.00 27 1015.0
20260503001548 23 337 3.2 14.5 0.00 0.00 0.00 27 1015.1
20260503001051 23 355 1.6 14.5 0.00 0.00 0.00 28 1015.2
20260503000546 24 90 1.6 9.7 0.00 0.00 0.00 28 1015.4
20260503000052 23 13 3.2 9.7 0.00 0.00 0.00 28 1015.3
20260502235548 23 5 3.2 8.0 0.00 0.00 0.00 29 1015.4
20260502235045 23 19 1.6 14.5 0.00 0.00 0.00 30 1015.5
20260502234544 23 324 3.2 14.5 0.00 0.00 0.00 29 1015.5
20260502234046 23 23 1.6 12.9 0.00 0.00 0.00 30 1015.6
20260502233545 23 15 3.2 12.9 0.00 0.00 0.00 30 1015.5
20260502233043 23 355 3.2 12.9 0.00 0.00 0.00 29 1015.6
20260502232544 23 31 3.2 9.7 0.00 0.00 0.00 30 1015.7
20260502232044 24 29 3.2 8.0 0.00 0.00 0.00 29 1015.7
20260502231542 24 41 1.6 14.5 0.00 0.00 0.00 30 1015.7
20260502231042 24 351 1.6 14.5 0.00 0.00 0.00 28 1015.9
20260502230544 24 315 3.2 14.5 0.00 0.00 0.00 28 1016.0
20260502230038 24 107 1.6 16.1 0.00 0.00 0.00 28 1016.1
20260502225537 23 315 3.2 16.1 0.00 0.00 0.00 28 1016.1
20260502225036 24 301 3.2 14.5 0.00 0.00 0.00 29 1016.1
20260502224535 23 17 3.2 14.5 0.00 0.00 0.00 29 1016.2
20260502224034 23 261 1.6 9.7 0.00 0.00 0.00 28 1016.3
20260502223536 23 15 3.2 9.7 0.00 0.00 0.00 28 1016.4
20260502223034 23 5 1.6 12.9 0.00 0.00 0.00 30 1016.4
20260502222530 23 19 1.6 12.9 0.00 0.00 0.00 30 1016.5
20260502222029 23 240 3.2 9.7 0.00 0.00 0.00 29 1016.6
20260502221528 22 292 1.6 9.7 0.00 0.00 0.00 31 1016.6
20260502221028 22 20 4.8 9.7 0.00 0.00 0.00 30 1016.8
20260502220527 22 21 3.2 9.7 0.00 0.00 0.00 32 1016.7
20260502220027 22 18 3.2 9.7 0.00 0.00 0.00 33 1016.7
20260502215528 22 91 1.6 9.7 0.00 0.00 0.00 34 1016.7
20260502215024 22 5 1.6 14.5 0.00 0.00 0.00 35 1016.8
20260502214523 22 350 4.8 14.5 0.00 0.00 0.00 35 1016.8
20260502214023 22 355 3.2 12.9 0.00 0.00 0.00 37 1016.8
20260502213520 22 317 1.6 9.7 0.00 0.00 0.00 37 1017.1
20260502213035 21 15 3.2 9.7 0.00 0.00 0.00 37 1017.1
20260502212519 21 323 3.2 9.7 0.00 0.00 0.00 37 1017.2
20260502212018 21 319 1.6 8.0 0.00 0.00 0.00 38 1017.1
20260502211517 21 11 4.8 8.0 0.00 0.00 0.00 38 1017.3
20260502211016 21 36 3.2 8.0 0.00 0.00 0.00 39 1017.2
20260502210517 20 5 3.2 9.7 0.00 0.00 0.00 39 1017.2
20260502210015 20 312 3.2 14.5 0.00 0.00 0.00 41 1017.3
20260502205615 20 5 1.6 14.5 0.00 0.00 0.00 40 1017.3
20260502205015 20 343 4.8 9.7 0.00 0.00 0.00 40 1017.4
20260502204513 20 10 4.8 8.0 0.00 0.00 0.00 42 1017.4
20260502204011 19 11 3.2 9.7 0.00 0.00 0.00 43 1017.5
20260502203512 19 46 3.2 12.9 0.00 0.00 0.00 43 1017.5
20260502203012 19 49 3.2 9.7 0.00 0.00 0.00 44 1017.5
20260502202511 19 69 3.2 9.7 0.00 0.00 0.00 45 1017.7
20260502202011 19 338 3.2 9.7 0.00 0.00 0.00 44 1017.6
20260502201522 19 55 3.2 12.9 0.00 0.00 0.00 45 1017.6
20260502201010 19 65 3.2 9.7 0.00 0.00 0.00 45 1017.8